Temperature
10 9 9 8 8 7 7 6 6 5 5 4 3 3 2 2 1 0 -0 -1 -1 -2 -3 -4 -4 -5 -5 -5 -5 -6 -7 -7 -7 -7 -6 -7 -7 -7 -7 -7 -7 -7 -7
9 8 8 7 7 6 6 6 5 4 4 3 2 2 1 1 0 -1 -1 -2 -2 -3 -4 -4 -5 -5 -6 -6 -6 -7 -7 -7 -7 -7 -7 -7 -7 -7 -7 -7 -7 -7 -8
8 7 7 6 6 6 5 5 4 3 3 2 1 1 0 -0 -1 -1 -2 -3 -3 -4 -5 -5 -6 -6 -6 -7 -7 -8 -8 -8 -8 -8 -8 -7 -7 -7 -7 -8 -8 -8 -8
7 6 6 6 5 5 4 4 3 2 2 1 1 0 -0 -1 -1 -2 -2 -3 -4 -5 -5 -6 -6 -7 -7 -8 -8 -8 -8 -8 -8 -8 -8 -7 -7 -7 -8 -8 -8 -9 -9
6 6 5 5 5 4 3 3 2 2 1 0 -0 -1 -1 -1 -2 -3 -4 -4 -5 -5 -6 -6 -7 -7 -8 -8 -8 -8 -8 -8 -8 -8 -8 -8 -8 -8 -8 -9 -9 -9 -9
5 5 4 4 4 3 2 2 1 1 0 -0 -1 -1 -2 -2 -3 -3 -5 -5 -6 -6 -7 -7 -7 -8 -8 -8 -8 -8 -8 -8 -8 -8 -8 -8 -8 -9 -9 -9 -9 -9 -9
4 4 4 3 3 2 2 1 1 0 -0 -1 -1 -2 -2 -3 -3 -4 -5 -6 -6 -7 -7 -8 -8 -9 -9 -9 -9 -9 -8 -8 -8 -8 -9 -9 -9 -9 -9 -9 -10 -10 -10
4 4 3 3 2 1 1 0 -0 -1 -1 -2 -2 -3 -3 -4 -4 -5 -6 -7 -7 -7 -8 -8 -9 -9 -9 -9 -9 -8 -8 -9 -9 -9 -9 -9 -10 -10 -10 -10 -10 -10 -10
3 3 2 2 1 1 0 -0 -1 -1 -2 -2 -3 -3 -4 -5 -5 -6 -7 -8 -8 -8 -8 -9 -9 -9 -9 -9 -8 -9 -9 -9 -10 -10 -10 -10 -10 -10 -10 -10 -11 -11 -11
3 2 2 1 0 0 -0 -1 -2 -2 -3 -3 -3 -4 -5 -5 -6 -8 -8 -8 -9 -8 -9 -9 -9 -9 -9 -9 -9 -9 -10 -10 -10 -10 -10 -10 -10 -10 -11 -11 -11 -11 -11
2 1 1 0 -0 -1 -1 -2 -2 -3 -3 -3 -3 -4 -5 -6 -7 -8 -9 -9 -9 -9 -9 -9 -9 -10 -9 -9 -10 -10 -10 -10 -10 -10 -10 -11 -11 -11 -11 -11 -11 -11 -11
1 1 0 -0 -1 -1 -2 -2 -3 -3 -3 -4 -4 -5 -6 -7 -8 -9 -9 -9 -9 -9 -10 -10 -10 -10 -10 -10 -10 -11 -11 -11 -11 -12 -12 -12 -11 -11 -10 -10 -10 -10 -10
1 0 -0 -1 -1 -2 -3 -3 -3 -3 -4 -4 -6 -7 -7 -8 -8 -9 -9 -9 -9 -10 -10 -10 -10 -10 -11 -10 -11 -11 -11 -12 -12 -12 -12 -12 -11 -11 -10 -10 -10 -10 -9
-0 -1 -1 -1 -2 -2 -3 -3 -4 -4 -5 -6 -7 -8 -8 -9 -9 -9 -9 -10 -10 -10 -10 -10 -11 -10 -11 -11 -11 -11 -11 -12 -12 -12 -12 -11 -11 -11 -11 -11 -11 -10 -10
-1 -1 -2 -2 -2 -3 -3 -4 -4 -5 -6 -8 -8 -9 -9 -9 -9 -10 -10 -10 -10 -10 -10 -11 -10 -11 -11 -11 -12 -12 -12 -12 -12 -12 -12 -11 -11 -11 -10 -10 -10 -10 -10
-1 -2 -2 -3 -3 -3 -3 -4 -4 -5 -6 -7 -8 -9 -9 -10 -10 -10 -10 -10 -10 -11 -11 -11 -12 -12 -13 -13 -13 -12 -12 -12 -12 -11 -11 -11 -11 -11 -11 -10 -10 -10 -10
-2 -2 -3 -3 -3 -4 -4 -5 -5 -6 -6 -7 -8 -8 -9 -10 -10 -10 -11 -11 -11 -11 -11 -12 -13 -13 -13 -13 -13 -12 -12 -11 -11 -11 -10 -10 -10 -10 -10 -10 -10 -10 -9
-3 -3 -3 -4 -4 -5 -5 -6 -7 -8 -8 -8 -8 -9 -10 -10 -10 -11 -11 -11 -10 -11 -12 -12 -13 -12 -12 -12 -12 -12 -11 -10 -10 -10 -10 -9 -10 -10 -10 -10 -9 -9 -9
-3 -4 -4 -4 -5 -5 -6 -7 -7 -8 -9 -9 -9 -9 -10 -10 -10 -10 -11 -11 -12 -12 -12 -12 -12 -12 -11 -11 -11 -11 -10 -10 -9 -9 -9 -9 -9 -9 -9 -9 -9 -9 -8
-4 -4 -5 -5 -5 -6 -7 -7 -8 -9 -9 -9 -9 -10 -10 -11 -11 -10 -11 -11 -12 -12 -12 -12 -11 -11 -11 -11 -10 -10 -10 -9 -9 -9 -8 -8 -8 -8 -8 -8 -8 -8 -8
-4 -5 -5 -6 -6 -7 -8 -8 -9 -9 -9 -10 -10 -10 -11 -12 -11 -11 -11 -12 -12 -12 -12 -11 -11 -11 -10 -10 -10 -9 -9 -8 -8 -8 -8 -8 -8 -8 -8 -8 -8 -8 -8
-5 -5 -6 -6 -7 -8 -8 -9 -9 -10 -10 -10 -10 -10 -10 -11 -11 -11 -11 -12 -11 -11 -11 -11 -11 -10 -10 -10 -9 -9 -8 -8 -7 -7 -7 -7 -7 -7 -7 -7 -7 -7 -7
-6 -6 -6 -7 -8 -8 -9 -9 -9 -10 -10 -10 -10 -10 -11 -11 -11 -11 -11 -11 -11 -11 -11 -11 -10 -10 -9 -9 -8 -8 -8 -7 -7 -7 -7 -7 -7 -7 -7 -7 -7 -7 -7
-6 -7 -7 -8 -8 -9 -9 -10 -10 -10 -10 -11 -11 -11 -12 -12 -11 -11 -11 -11 -11 -10 -10 -10 -10 -9 -8 -8 -8 -7 -7 -7 -7 -7 -7 -7 -7 -7 -7 -7 -7 -7 -7
-7 -7 -8 -8 -9 -9 -10 -10 -10 -10 -11 -11 -11 -12 -12 -11 -11 -11 -11 -11 -10 -10 -10 -9 -9 -8 -8 -7 -7 -7 -7 -7 -7 -7 -7 -7 -7 -7 -7 -7 -7 -7 -7
-8 -8 -8 -9 -9 -10 -10 -10 -11 -11 -11 -11 -11 -11 -11 -11 -11 -11 -11 -10 -10 -10 -9 -9 -8 -8 -7 -7 -7 -7 -7 -7 -7 -7 -7 -7 -7 -7 -7 -7 -6 -7 -7
Wind_Speed
11 10 10 8 8 7 6 5 4 3 3 4 5 5 6 7 7 7 8 8 8 7 7 7 8 8 7 7 8 8 9 10 17 19 15 11 10 11 13 9 13 11 15
10 10 9 8 8 7 5 4 3 3 3 4 5 6 7 8 8 8 9 9 8 8 9 8 8 9 9 9 9 10 11 11 14 20 19 15 13 12 12 11 13 15 12
11 10 9 8 7 6 4 3 3 4 4 5 6 7 7 8 8 8 8 8 9 9 9 8 9 9 11 10 12 12 11 13 11 16 19 17 14 12 12 14 14 11 16
10 9 8 7 6 5 4 3 3 4 5 6 6 7 8 8 8 8 8 9 9 9 8 9 9 10 12 12 13 11 12 13 13 15 17 16 14 11 11 14 15 10 13
10 9 7 6 5 4 3 3 4 5 6 6 7 8 8 8 9 12 10 9 9 9 9 8 10 16 21 18 17 15 15 15 16 16 17 17 15 14 14 14 18 16 13
9 8 7 6 5 3 3 4 5 5 6 6 7 8 9 10 18 21 17 10 9 9 10 9 11 14 19 26 29 28 26 21 19 19 18 18 18 16 16 17 18 19 17
9 7 6 5 4 3 3 4 5 5 6 7 8 8 9 11 20 21 22 14 9 9 10 11 14 16 20 14 22 27 24 29 28 20 19 18 20 19 20 21 19 19 20
8 7 6 5 3 2 3 4 5 5 5 6 7 8 8 11 20 21 23 11 9 10 10 11 12 13 16 21 19 18 16 15 19 16 14 17 17 17 17 19 19 19 17
8 6 5 4 3 2 4 5 4 5 6 6 7 8 8 11 18 21 22 9 9 11 10 11 14 13 25 31 22 19 17 14 21 25 26 25 29 30 24 16 15 15 17
7 6 5 3 2 2 4 4 4 5 6 7 7 8 8 9 16 21 22 8 10 11 10 10 18 23 29 30 19 15 16 17 17 17 19 21 18 19 24 16 14 15 16
7 6 4 3 2 2 3 3 5 6 7 7 8 8 8 10 16 20 22 11 10 12 12 11 12 27 30 29 24 13 20 22 15 15 15 15 14 13 14 14 14 14 15
6 5 3 2 2 3 4 5 6 6 7 7 7 8 6 8 13 18 23 21 20 12 13 12 15 28 29 27 21 22 27 22 13 14 14 14 14 14 15 16 17 17 16
6 4 3 3 3 3 4 5 6 6 5 6 6 7 7 6 10 20 22 23 24 15 12 22 25 27 24 18 21 25 21 13 13 13 14 14 13 14 15 15 15 15 16
6 3 2 2 3 4 4 4 4 5 6 7 8 8 9 8 7 8 9 11 17 15 12 16 22 22 19 19 18 16 12 13 14 13 14 14 13 13 14 14 15 15 14
4 2 1 2 3 4 4 4 6 5 7 9 6 7 10 10 14 24 19 13 13 14 16 8 9 12 12 13 13 13 12 13 14 13 14 15 15 15 15 13 13 13 13
3 1 1 2 3 4 5 6 9 11 15 16 16 16 13 18 25 26 26 26 26 25 17 11 12 12 13 14 14 15 14 14 14 14 14 14 15 15 15 14 13 12 13
2 1 2 3 4 4 5 6 7 9 13 15 18 20 19 22 24 25 25 25 23 21 11 11 12 12 13 13 13 14 14 14 13 13 14 14 14 14 14 14 13 13 12
1 2 3 3 4 4 5 6 6 8 9 8 12 18 20 22 23 23 24 20 14 13 10 11 12 13 13 13 13 14 14 14 13 13 14 14 13 13 14 13 13 13 12
1 2 3 3 4 5 5 6 6 8 8 9 9 11 18 20 21 20 19 10 11 12 12 12 12 12 13 13 13 13 14 14 15 14 14 14 13 13 13 13 12 16 13
1 5 6 4 4 5 5 6 6 7 8 9 10 11 11 12 9 11 11 9 10 11 12 13 13 13 13 13 13 13 14 14 15 14 13 13 13 12 13 13 12 11 9
2 4 7 5 5 5 6 6 7 8 8 9 10 13 19 11 9 10 11 11 11 12 13 13 13 13 13 13 13 14 15 15 14 14 13 13 13 13 12 11 10 9 8
2 3 4 5 5 5 6 6 7 8 9 10 10 13 18 11 9 10 11 12 12 12 12 13 13 13 13 13 14 14 15 16 15 14 14 14 13 12 11 9 8 7 7
3 4 5 5 5 9 9 7 7 8 9 10 10 11 11 11 11 11 12 12 12 13 13 13 13 14 14 14 14 14 15 15 15 16 15 14 12 10 9 8 8 7 5
4 4 5 5 5 5 6 7 8 9 10 11 11 11 11 12 12 13 13 12 13 13 13 13 14 18 22 18 15 14 15 16 17 15 15 11 9 8 7 6 6 5 4
4 4 5 5 6 6 7 8 8 10 11 11 11 11 12 12 12 12 12 12 13 14 16 17 14 15 20 25 23 19 22 28 22 11 8 7 7 7 7 6 4 3 3
4 4 5 5 5 6 7 8 9 10 10 11 11 11 12 12 12 12 12 12 13 15 16 15 17 21 24 21 21 24 28 24 18 15 8 6 6 6 6 4 4 3 4
Wind_Direction
115 111 111 109 110 108 106 107 103 76 41 18 357 346 336 323 316 310 303 303 302 299 296 301 294 297 301 302 297 292 288 286 293 299 300 297 285 280 286 271 277 275 283
119 114 111 111 110 107 105 98 83 53 19 358 345 334 323 317 309 304 303 309 300 294 291 290 290 306 304 303 298 293 291 284 287 296 301 303 295 289 287 281 293 292 287
120 116 113 114 113 112 107 86 57 27 0 348 339 326 317 312 307 302 298 296 292 288 286 284 288 297 301 301 297 294 292 294 290 295 298 299 297 296 296 295 290 285 290
121 119 121 124 123 119 102 68 30 7 352 342 332 322 315 311 305 301 301 298 293 288 282 279 283 290 295 299 300 294 299 301 297 295 295 297 298 296 295 301 301 288 288
125 123 127 128 121 107 80 38 12 359 349 337 329 322 319 317 318 321 314 309 303 299 292 284 287 304 309 309 308 309 307 302 302 302 301 301 302 305 304 303 301 299 288
127 129 129 125 116 96 56 23 5 351 340 335 325 317 318 328 328 330 330 318 312 311 309 303 300 305 308 314 312 308 306 306 306 304 303 304 305 303 303 302 302 302 300
128 131 130 124 112 79 37 13 352 337 328 322 314 311 309 316 332 333 331 333 326 316 310 308 312 314 315 302 302 306 305 303 304 304 303 302 302 304 304 304 302 300 297
131 133 130 122 104 59 19 352 328 315 313 307 303 304 307 319 334 333 332 335 315 305 300 298 299 302 307 310 308 308 303 303 302 302 297 299 302 302 301 302 300 298 294
134 135 130 121 98 30 349 327 312 306 306 297 297 303 307 314 328 330 330 313 307 302 296 298 307 306 308 314 317 314 314 310 311 310 310 309 308 309 308 307 305 303 301
138 133 126 113 84 352 321 309 300 298 292 297 302 303 301 299 318 328 327 309 310 310 305 299 312 315 315 320 322 321 318 314 316 318 315 310 306 305 309 307 303 299 298
129 123 111 88 24 325 318 304 302 301 303 306 304 302 298 306 322 328 326 326 316 317 319 317 313 318 322 326 328 323 314 321 325 318 313 310 310 309 309 306 301 296 295
120 112 94 50 357 348 330 312 308 310 312 311 307 305 295 302 319 323 327 327 327 322 318 315 316 323 328 329 327 320 324 329 321 315 314 314 315 313 311 307 301 296 288
112 102 74 24 354 337 320 315 317 319 316 312 309 312 313 307 313 323 325 328 330 327 316 320 324 328 330 327 321 325 329 324 318 317 316 314 311 306 307 307 304 300 293
112 95 54 5 333 325 316 313 317 315 312 315 321 323 319 314 308 309 314 321 327 324 318 323 328 327 327 324 324 324 322 318 320 317 314 311 311 310 311 311 312 313 311
109 88 18 331 315 313 318 316 320 297 310 325 319 315 322 322 321 329 333 327 329 325 331 327 325 326 326 324 323 323 323 322 321 318 315 315 315 314 313 314 312 313 313
116 81 313 306 307 313 317 319 328 331 329 330 330 328 323 322 324 330 330 331 333 335 335 327 324 323 323 323 322 322 322 321 319 317 314 313 313 314 314 316 316 316 317
131 263 293 307 312 315 314 314 318 324 325 327 328 328 326 325 327 329 331 334 335 335 332 322 320 320 319 318 318 317 317 315 314 313 312 312 312 312 313 316 319 320 321
111 326 325 310 309 306 304 304 306 313 317 314 320 325 327 327 327 331 335 338 331 331 325 320 318 317 316 315 315 314 313 313 313 312 311 310 311 312 313 315 318 320 323
56 320 316 311 307 302 301 302 303 306 311 314 315 322 328 327 328 332 338 332 324 324 323 320 317 314 313 312 311 310 309 309 308 309 308 308 310 311 312 313 315 321 327
7 346 345 330 317 311 307 308 311 312 315 316 319 322 323 323 329 331 331 324 323 322 320 317 314 311 311 310 310 309 309 307 307 307 306 307 308 308 309 310 314 320 322
351 334 341 332 310 306 306 309 315 317 316 316 315 319 326 330 326 322 323 324 324 320 317 314 311 310 309 308 308 307 305 304 304 303 303 304 305 306 306 307 312 316 319
340 322 316 311 308 310 314 317 317 316 315 315 316 320 326 328 319 320 322 321 319 315 313 311 308 306 306 306 306 305 303 302 302 302 301 301 301 301 302 307 313 318 322
335 324 319 315 313 325 329 320 319 318 317 317 318 320 322 322 322 321 320 319 317 315 313 311 308 307 306 305 303 299 297 296 295 294 294 295 296 299 304 309 313 319 327
334 325 320 320 321 319 319 319 319 321 322 319 319 319 320 321 320 318 318 317 316 313 311 310 307 305 305 308 307 304 297 294 293 291 291 296 302 307 309 310 314 322 333
341 332 327 323 323 322 321 319 319 319 318 318 317 318 319 318 316 316 317 315 313 312 311 311 309 309 309 309 308 306 305 309 315 321 321 320 315 314 314 318 327 345 13
346 337 328 321 317 316 317 318 317 315 315 315 316 316 315 314 314 315 315 314 315 315 313 312 309 311 310 310 308 311 316 325 338 347 344 324 323 326 332 341 3 28 51
Height
1468 1471 1473 1476 1477 1478 1478 1478 1477 1475 1473 1471 1469 1466 1463 1460 1456 1451 1447 1442 1438 1433 1429 1424 1419 1414 1408 1403 1399 1394 1390 1385 1375 1361 1357 1353 1350 1346 1342 1339 1335 1330 1325
1467 1470 1472 1474 1476 1476 1476 1475 1474 1472 1470 1468 1466 1463 1459 1455 1451 1446 1441 1437 1432 1427 1423 1418 1413 1408 1402 1397 1392 1386 1382 1378 1371 1360 1350 1345 1341 1337 1332 1328 1324 1320 1315
1465 1468 1471 1473 1474 1474 1474 1473 1471 1469 1467 1465 1462 1459 1455 1450 1446 1441 1436 1431 1426 1422 1417 1412 1407 1402 1395 1390 1385 1380 1375 1370 1365 1357 1346 1339 1333 1329 1323 1317 1313 1308 1303
1464 1467 1470 1471 1472 1472 1471 1470 1468 1466 1464 1461 1458 1454 1450 1445 1440 1435 1430 1425 1421 1416 1412 1407 1402 1396 1390 1384 1379 1374 1369 1362 1356 1348 1340 1332 1326 1321 1316 1308 1300 1295 1290
1463 1466 1468 1469 1470 1469 1468 1467 1465 1463 1461 1458 1454 1450 1445 1440 1435 1430 1425 1420 1415 1410 1406 1401 1396 1391 1386 1381 1375 1368 1362 1355 1348 1341 1333 1325 1319 1313 1307 1300 1291 1284 1278
1462 1465 1466 1467 1467 1467 1466 1464 1463 1460 1457 1454 1449 1445 1440 1435 1430 1425 1420 1415 1410 1404 1399 1394 1389 1384 1379 1374 1368 1362 1356 1350 1341 1334 1326 1319 1312 1306 1299 1292 1284 1275 1266
1461 1463 1465 1465 1465 1464 1463 1462 1460 1457 1453 1449 1445 1440 1435 1430 1425 1420 1415 1410 1404 1399 1393 1388 1382 1377 1372 1365 1358 1353 1348 1342 1337 1330 1320 1313 1305 1298 1292 1284 1277 1269 1260
1460 1462 1463 1463 1463 1462 1461 1459 1456 1453 1449 1445 1440 1436 1431 1425 1420 1415 1410 1404 1398 1393 1388 1383 1377 1370 1364 1358 1351 1344 1338 1332 1327 1321 1314 1306 1299 1292 1286 1278 1269 1260 1251
1459 1460 1461 1461 1460 1459 1458 1455 1452 1449 1445 1441 1436 1431 1426 1421 1415 1410 1404 1398 1392 1387 1382 1377 1372 1365 1358 1352 1345 1337 1329 1323 1318 1312 1306 1299 1291 1284 1278 1270 1262 1254 1244
1457 1458 1458 1458 1458 1457 1455 1452 1448 1445 1441 1436 1432 1427 1421 1416 1410 1405 1400 1394 1387 1380 1375 1370 1366 1359 1352 1346 1339 1331 1322 1315 1308 1301 1295 1288 1281 1275 1270 1264 1257 1249 1240
1455 1456 1456 1456 1455 1454 1451 1448 1445 1441 1436 1432 1427 1422 1417 1411 1405 1401 1396 1391 1385 1377 1370 1364 1358 1352 1346 1340 1333 1325 1318 1311 1303 1295 1287 1280 1274 1268 1262 1256 1250 1244 1235
1453 1454 1454 1454 1452 1450 1448 1444 1441 1436 1431 1426 1420 1415 1411 1406 1401 1396 1392 1388 1382 1375 1367 1359 1352 1347 1340 1333 1326 1319 1314 1306 1298 1290 1283 1276 1269 1261 1255 1248 1242 1236 1229
1451 1452 1452 1451 1449 1447 1444 1440 1436 1431 1425 1420 1415 1409 1405 1401 1396 1392 1387 1382 1376 1370 1362 1355 1348 1341 1333 1326 1320 1315 1308 1300 1294 1287 1280 1272 1265 1257 1250 1242 1234 1228 1220
1450 1450 1449 1448 1446 1444 1440 1436 1431 1426 1421 1415 1410 1405 1400 1395 1391 1386 1381 1375 1369 1363 1356 1348 1342 1335 1328 1322 1315 1309 1303 1297 1292 1285 1277 1269 1261 1253 1246 1239 1230 1222 1214
1448 1448 1447 1445 1443 1439 1436 1432 1427 1422 1418 1413 1408 1403 1397 1390 1386 1383 1377 1370 1364 1358 1351 1343 1336 1329 1322 1316 1311 1305 1299 1293 1287 1281 1273 1265 1258 1250 1242 1236 1228 1221 1213
1446 1445 1444 1441 1439 1435 1431 1428 1423 1420 1415 1410 1405 1401 1395 1390 1384 1378 1373 1366 1360 1353 1346 1339 1332 1326 1320 1314 1308 1301 1295 1289 1283 1277 1270 1263 1256 1248 1240 1233 1227 1220 1213
1443 1442 1440 1438 1435 1431 1426 1422 1417 1414 1411 1407 1402 1397 1391 1386 1380 1374 1368 1362 1355 1349 1342 1335 1330 1324 1318 1312 1305 1299 1292 1286 1280 1274 1267 1261 1254 1246 1239 1232 1225 1219 1212
1441 1439 1437 1434 1431 1427 1423 1418 1414 1408 1404 1400 1397 1392 1387 1381 1376 1370 1364 1356 1349 1344 1338 1333 1327 1321 1315 1309 1302 1296 1289 1283 1277 1271 1265 1258 1252 1245 1238 1232 1225 1220 1213
1438 1436 1434 1431 1427 1423 1419 1415 1410 1406 1400 1395 1390 1386 1382 1376 1371 1365 1359 1352 1346 1340 1335 1329 1324 1318 1312 1306 1299 1293 1286 1280 1274 1268 1262 1256 1250 1244 1237 1232 1226 1220 1215
1435 1433 1430 1427 1423 1420 1415 1411 1406 1402 1397 1392 1386 1381 1375 1370 1365 1359 1354 1349 1343 1338 1332 1326 1320 1315 1309 1303 1296 1290 1283 1277 1271 1265 1259 1254 1248 1242 1237 1231 1226 1221 1216
1432 1429 1427 1423 1420 1416 1412 1407 1403 1398 1393 1388 1383 1378 1373 1368 1361 1356 1350 1345 1340 1334 1329 1323 1317 1311 1305 1299 1293 1286 1280 1274 1268 1262 1256 1251 1246 1241 1236 1232 1227 1223 1218
1429 1426 1423 1420 1416 1412 1408 1404 1399 1395 1389 1384 1378 1374 1369 1364 1358 1353 1347 1342 1337 1332 1326 1320 1314 1308 1303 1296 1289 1283 1277 1271 1265 1259 1254 1249 1244 1239 1235 1231 1227 1223 1220
1425 1422 1419 1416 1412 1408 1404 1400 1395 1390 1385 1380 1375 1369 1364 1359 1354 1349 1344 1339 1334 1328 1323 1318 1311 1305 1300 1293 1287 1281 1274 1268 1262 1256 1251 1246 1242 1239 1235 1231 1228 1224 1221
1422 1419 1416 1412 1408 1404 1400 1396 1391 1386 1381 1376 1371 1366 1361 1356 1351 1346 1341 1336 1331 1325 1320 1315 1309 1303 1297 1291 1285 1279 1273 1266 1260 1255 1251 1246 1242 1238 1235 1231 1228 1226 1223
1418 1415 1412 1408 1404 1400 1396 1392 1387 1382 1377 1372 1367 1362 1357 1353 1348 1343 1338 1333 1328 1323 1317 1312 1306 1300 1294 1288 1282 1277 1270 1265 1260 1255 1250 1246 1242 1238 1235 1232 1230 1227 1226
1415 1412 1408 1405 1401 1397 1392 1388 1383 1378 1373 1368 1364 1359 1354 1349 1345 1340 1335 1330 1325 1320 1315 1310 1304 1298 1292 1287 1281 1275 1269 1264 1259 1254 1250 1246 1242 1239 1236 1234 1231 1230 1228